Hourly Weather Rudenkivka

Today, 29 July, Thursday

Time Temperature Precipitation Wind Pressure Humidity
00:00 +23°C° 0.2 mm 2 mps 751 mmHg 82%
01:00 +23°C° 0.2 mm 2 mps 751 mmHg 84%
02:00 +21°C° 0.2 mm 2 mps 751 mmHg 87%
03:00 +21°C° 0 mm 2 mps 751 mmHg 87%
04:00 +22°C° 0 mm 1 mps 751 mmHg 87%
05:00 +22°C° 0 mm 1 mps 751 mmHg 87%
06:00 +24°C° 0 mm 1 mps 751 mmHg 80%
07:00 +26°C° 0 mm 1 mps 751 mmHg 72%
08:00 +28°C° 0 mm 1 mps 751 mmHg 64%
09:00 +30°C° 0 mm 2 mps 751 mmHg 57%
10:00 +32°C° 0 mm 2 mps 750 mmHg 49%
11:00 +34°C° 0 mm 3 mps 750 mmHg 41%
12:00 +35°C° 0 mm 3 mps 750 mmHg 39%
13:00 +35°C° 0 mm 4 mps 749 mmHg 36%
14:00 +36°C° 0 mm 4 mps 749 mmHg 34%
15:00 +34°C° 0.1 mm 4 mps 749 mmHg 38%
16:00 +33°C° 0.1 mm 4 mps 749 mmHg 43%
17:00 +32°C° 0.1 mm 5 mps 748 mmHg 47%
18:00 +29°C° 0.2 mm 4 mps 749 mmHg 57%
19:00 +26°C° 0.2 mm 4 mps 749 mmHg 67%
20:00 +23°C° 0.2 mm 4 mps 749 mmHg 77%
21:00 +23°C° 0.3 mm 4 mps 749 mmHg 80%
22:00 +22°C° 0.3 mm 3 mps 749 mmHg 84%
23:00 +21°C° 0.3 mm 2 mps 749 mmHg 87%

Tomorrow, 30 July, Friday

Time Temperature Precipitation Wind Pressure Humidity
00:00 +21°C° 0.1 mm 3 mps 749 mmHg 87%
01:00 +21°C° 0.1 mm 3 mps 749 mmHg 87%
02:00 +21°C° 0.1 mm 4 mps 749 mmHg 88%
03:00 +21°C° 0 mm 3 mps 748 mmHg 89%
04:00 +21°C° 0 mm 2 mps 748 mmHg 90%
05:00 +22°C° 0 mm 1 mps 748 mmHg 91%
06:00 +23°C° 0.2 mm 2 mps 748 mmHg 86%
07:00 +25°C° 0.2 mm 2 mps 749 mmHg 80%
08:00 +26°C° 0.2 mm 3 mps 749 mmHg 75%
09:00 +27°C° 0 mm 3 mps 749 mmHg 70%
10:00 +28°C° 0 mm 3 mps 749 mmHg 64%
11:00 +29°C° 0 mm 3 mps 749 mmHg 59%
12:00 +30°C° 0 mm 3 mps 749 mmHg 55%
13:00 +31°C° 0 mm 3 mps 749 mmHg 51%
14:00 +33°C° 0 mm 3 mps 748 mmHg 46%
15:00 +32°C° 0 mm 4 mps 748 mmHg 46%
16:00 +32°C° 0 mm 4 mps 748 mmHg 46%
17:00 +32°C° 0 mm 5 mps 747 mmHg 45%
18:00 +30°C° 0 mm 4 mps 748 mmHg 49%
19:00 +28°C° 0 mm 4 mps 748 mmHg 53%
20:00 +27°C° 0 mm 4 mps 748 mmHg 57%
21:00 +26°C° 0 mm 3 mps 749 mmHg 59%
22:00 +25°C° 0 mm 3 mps 749 mmHg 62%
23:00 +25°C° 0 mm 2 mps 749 mmHg 64%

Day after tomorrow, 31 July, Saturday

Time Temperature Precipitation Wind Pressure Humidity
00:00 +24°C° 0 mm 2 mps 749 mmHg 68%
01:00 +23°C° 0 mm 2 mps 749 mmHg 71%
02:00 +21°C° 0 mm 2 mps 749 mmHg 75%
03:00 +21°C° 0 mm 2 mps 750 mmHg 75%
04:00 +21°C° 0 mm 2 mps 750 mmHg 75%
05:00 +21°C° 0 mm 2 mps 750 mmHg 75%
06:00 +24°C° 0 mm 2 mps 750 mmHg 66%
07:00 +26°C° 0 mm 2 mps 750 mmHg 57%
08:00 +29°C° 0 mm 2 mps 750 mmHg 48%
09:00 +30°C° 0 mm 2 mps 750 mmHg 43%
10:00 +31°C° 0 mm 2 mps 750 mmHg 38%
11:00 +32°C° 0 mm 2 mps 750 mmHg 32%
12:00 +34°C° 0 mm 2 mps 750 mmHg 31%
13:00 +35°C° 0 mm 2 mps 750 mmHg 29%
14:00 +35°C° 0 mm 2 mps 750 mmHg 28%
15:00 +35°C° 0 mm 2 mps 750 mmHg 28%
16:00 +35°C° 0 mm 2 mps 750 mmHg 28%
17:00 +35°C° 0 mm 2 mps 750 mmHg 28%
18:00 +31°C° 0 mm 2 mps 750 mmHg 34%
19:00 +29°C° 0 mm 1 mps 750 mmHg 40%
20:00 +27°C° 0 mm 1 mps 750 mmHg 45%
21:00 +26°C° 0 mm 1 mps 750 mmHg 48%
22:00 +25°C° 0 mm 1 mps 750 mmHg 50%
23:00 +24°C° 0 mm 1 mps 750 mmHg 53%

1 August, Sunday

Time Temperature Precipitation Wind Pressure Humidity
00:00 +24°C° 0 mm 1 mps 751 mmHg 54%
01:00 +23°C° 0 mm 1 mps 751 mmHg 56%
02:00 +23°C° 0 mm 1 mps 751 mmHg 57%
03:00 +23°C° 0 mm 1 mps 751 mmHg 58%
04:00 +23°C° 0 mm 1 mps 751 mmHg 58%
05:00 +23°C° 0 mm 2 mps 751 mmHg 59%
06:00 +25°C° 0 mm 2 mps 751 mmHg 52%
07:00 +28°C° 0 mm 2 mps 751 mmHg 46%
08:00 +31°C° 0 mm 2 mps 751 mmHg 39%
09:00 +32°C° 0 mm 2 mps 751 mmHg 35%
10:00 +34°C° 0 mm 2 mps 751 mmHg 32%
11:00 +36°C° 0 mm 3 mps 751 mmHg 28%
12:00 +36°C° 0 mm 3 mps 750 mmHg 27%
13:00 +37°C° 0 mm 3 mps 750 mmHg 25%
14:00 +37°C° 0 mm 3 mps 750 mmHg 24%
15:00 +37°C° 0 mm 3 mps 750 mmHg 25%
16:00 +37°C° 0 mm 3 mps 749 mmHg 25%
17:00 +36°C° 0 mm 3 mps 749 mmHg 25%
18:00 +34°C° 0 mm 2 mps 749 mmHg 30%
19:00 +31°C° 0 mm 2 mps 749 mmHg 35%
20:00 +28°C° 0 mm 2 mps 749 mmHg 40%
21:00 +28°C° 0 mm 2 mps 749 mmHg 42%
22:00 +27°C° 0 mm 2 mps 750 mmHg 45%
23:00 +26°C° 0 mm 2 mps 750 mmHg 47%

2 August, Monday

Time Temperature Precipitation Wind Pressure Humidity
00:00 +25°C° 0 mm 2 mps 749 mmHg 48%
01:00 +25°C° 0 mm 2 mps 749 mmHg 50%
02:00 +24°C° 0 mm 2 mps 749 mmHg 51%
03:00 +24°C° 0 mm 2 mps 749 mmHg 52%
04:00 +24°C° 0 mm 2 mps 749 mmHg 53%
05:00 +24°C° 0 mm 2 mps 749 mmHg 53%
06:00 +26°C° 0 mm 2 mps 749 mmHg 50%
07:00 +28°C° 0 mm 3 mps 749 mmHg 46%
08:00 +31°C° 0 mm 3 mps 749 mmHg 43%
09:00 +34°C° 0 mm 3 mps 749 mmHg 38%
10:00 +35°C° 0 mm 4 mps 749 mmHg 33%
11:00 +37°C° 0 mm 5 mps 748 mmHg 29%
12:00 +39°C° 0 mm 5 mps 748 mmHg 27%
13:00 +39°C° 0 mm 5 mps 748 mmHg 25%
14:00 +40°C° 0 mm 5 mps 747 mmHg 23%
15:00 +39°C° 0 mm 5 mps 747 mmHg 25%
16:00 +37°C° 0 mm 5 mps 747 mmHg 26%
17:00 +37°C° 0 mm 5 mps 747 mmHg 28%
18:00 +35°C° 0 mm 4 mps 747 mmHg 32%
19:00 +33°C° 0 mm 4 mps 747 mmHg 37%
20:00 +29°C° 0 mm 3 mps 746 mmHg 42%
21:00 +27°C° 0.4 mm 4 mps 747 mmHg 56%
22:00 +25°C° 0.4 mm 5 mps 748 mmHg 70%
23:00 +21°C° 0.4 mm 7 mps 749 mmHg 84%

3 August, Tuesday

Time Temperature Precipitation Wind Pressure Humidity
00:00 +21°C° 0 mm 5 mps 749 mmHg 85%
01:00 +21°C° 0 mm 4 mps 749 mmHg 87%
02:00 +20°C° 0 mm 2 mps 749 mmHg 88%
03:00 +20°C° 0 mm 3 mps 749 mmHg 89%
04:00 +20°C° 0 mm 3 mps 750 mmHg 90%
05:00 +19°C° 0 mm 3 mps 750 mmHg 91%
06:00 +20°C° 0 mm 4 mps 751 mmHg 82%
07:00 +21°C° 0 mm 4 mps 751 mmHg 74%
08:00 +22°C° 0 mm 4 mps 751 mmHg 65%
09:00 +23°C° 0 mm 4 mps 751 mmHg 58%
10:00 +26°C° 0 mm 4 mps 752 mmHg 51%
11:00 +27°C° 0 mm 4 mps 752 mmHg 43%
12:00 +28°C° 0 mm 4 mps 752 mmHg 40%
13:00 +29°C° 0 mm 4 mps 751 mmHg 37%
14:00 +29°C° 0 mm 4 mps 751 mmHg 34%
15:00 +29°C° 0 mm 4 mps 751 mmHg 34%
16:00 +29°C° 0 mm 4 mps 751 mmHg 34%
17:00 +29°C° 0 mm 4 mps 751 mmHg 34%
18:00 +27°C° 0 mm 4 mps 752 mmHg 39%
19:00 +25°C° 0 mm 4 mps 752 mmHg 45%
20:00 +22°C° 0 mm 3 mps 752 mmHg 51%
21:00 +21°C° 0 mm 3 mps 752 mmHg 55%
22:00 +20°C° 0 mm 3 mps 753 mmHg 59%
23:00 +19°C° 0 mm 3 mps 753 mmHg 63%
Show more

We Need Your Consent

Meteoprog and our Service Providers may store and access personal data such as cookies, device identifiers or other similar technologies on your device and process such data to personalise content and ads, as well as provide social media features and to analyse the traffic.

  • Store and/or access information on your device

    Cookies, device identifiers or other information can be stored or accessed on your device for the purposes indicated above.

  • Personalised ads and content, ad and content measurement, audience insights, and products development

    Ads and content can be personalised based on a profile. More data can be added to better personalise ads and content. Ad and content performance can be measured. Insights about the audience who saw the ads and content can be derived. Such data can be used to develop or improve user’s experience, systems and software.

By clicking ‘I Agree’ you will allow the use of indicated cookies, device identifiers, web beacons or other similar technologies. Your settings can be changed in the browser on your device.

For certain purposes, legitimate interests may be relied on, rather than consent. You can read more about this in our Privacy and Cookie Policy.